Time,TemperatureF,DewpointF,PressureIn,WindDirection,WindDirectionDegrees,WindSpeedMPH,WindSpeedGustMPH,Humidity,HourlyPrecipIn,Conditions,Clouds,dailyrainin,SoftwareType,DateUTC
2013-08-06 00:40:00,57.6,45.9,30.06,North,351,0.0,0.0,65,0.00,,---,0.00,VWS V14.01,2013-08-06 04:40:00,
2013-08-06 00:41:00,57.6,45.9,30.06,North,351,0.0,0.0,65,0.00,,---,0.00,VWS V14.01,2013-08-06 04:41:00,
2013-08-06 00:42:00,57.6,45.9,30.06,North,351,0.0,0.0,65,0.00,,---,0.00,VWS V14.01,2013-08-06 04:42:00,
2013-08-06 00:47:00,57.6,46.3,30.06,North,351,0.0,0.0,66,0.00,,---,0.00,VWS V14.01,2013-08-06 04:47:00,
2013-08-06 00:52:00,57.4,46.1,30.06,North,351,0.0,0.0,66,0.00,,---,0.00,VWS V14.01,2013-08-06 04:52:00,
2013-08-06 00:57:00,57.4,46.1,30.06,North,351,0.0,0.0,66,0.00,,---,0.00,VWS V14.01,2013-08-06 04:57:00,
2013-08-06 01:02:00,57.2,46.4,30.06,North,351,0.0,0.0,67,0.00,,---,0.00,VWS V14.01,2013-08-06 05:02:00,
2013-08-06 01:07:00,57.2,46.4,30.06,North,351,0.0,0.0,67,0.00,,---,0.00,VWS V14.01,2013-08-06 05:07:00,
2013-08-06 01:12:00,57.0,46.2,30.06,North,351,0.0,0.0,67,0.00,,---,0.00,VWS V14.01,2013-08-06 05:12:00,
2013-08-06 01:17:00,56.8,46.0,30.06,North,351,0.0,0.0,67,0.00,,---,0.00,VWS V14.01,2013-08-06 05:17:00,
2013-08-06 01:22:00,56.8,46.0,30.06,North,351,0.0,0.0,67,0.00,,---,0.00,VWS V14.01,2013-08-06 05:22:00,
2013-08-06 01:27:00,56.7,46.2,30.06,North,351,0.0,0.0,68,0.00,,---,0.00,VWS V14.01,2013-08-06 05:27:00,
2013-08-06 01:32:00,56.8,46.4,30.06,North,351,0.0,0.0,68,0.00,,---,0.00,VWS V14.01,2013-08-06 05:32:00,
2013-08-06 01:37:00,56.8,46.8,30.06,North,351,0.0,0.0,69,0.00,,---,0.00,VWS V14.01,2013-08-06 05:37:00,
2013-08-06 01:42:00,56.7,46.6,30.06,North,351,0.0,0.0,69,0.00,,---,0.00,VWS V14.01,2013-08-06 05:42:00,
2013-08-06 01:47:00,56.7,46.6,30.06,North,351,0.0,0.0,69,0.00,,---,0.00,VWS V14.01,2013-08-06 05:47:00,
2013-08-06 01:52:00,56.5,46.5,30.06,North,351,0.0,0.0,69,0.00,,---,0.00,VWS V14.01,2013-08-06 05:52:00,
2013-08-06 01:57:00,56.5,46.8,30.06,North,351,0.0,0.0,70,0.00,,---,0.00,VWS V14.01,2013-08-06 05:57:00,
2013-08-06 02:02:00,56.5,46.8,30.06,North,351,0.0,0.0,70,0.00,,---,0.00,VWS V14.01,2013-08-06 06:02:00,
2013-08-06 02:07:00,56.3,46.7,30.06,North,351,0.0,0.0,70,0.00,,---,0.00,VWS V14.01,2013-08-06 06:07:00,
2013-08-06 02:12:00,56.3,46.7,30.06,North,351,0.0,0.0,70,0.00,,---,0.00,VWS V14.01,2013-08-06 06:12:00,
2013-08-06 02:17:00,56.3,47.0,30.06,North,351,0.0,0.0,71,0.00,,---,0.00,VWS V14.01,2013-08-06 06:17:00,
2013-08-06 02:22:00,56.1,46.9,30.06,North,351,0.0,0.0,71,0.00,,---,0.00,VWS V14.01,2013-08-06 06:22:00,
2013-08-06 02:27:00,56.1,46.9,30.06,North,351,0.0,0.0,71,0.00,,---,0.00,VWS V14.01,2013-08-06 06:27:00,
2013-08-06 02:32:00,55.9,46.7,30.06,North,351,0.0,0.0,71,0.00,,---,0.00,VWS V14.01,2013-08-06 06:32:00,
2013-08-06 02:37:00,55.9,46.7,30.06,North,351,0.0,0.0,71,0.00,,---,0.00,VWS V14.01,2013-08-06 06:37:00,
2013-08-06 02:42:00,55.8,46.5,30.06,North,351,0.0,0.0,71,0.00,,---,0.00,VWS V14.01,2013-08-06 06:42:00,
2013-08-06 02:47:00,55.6,46.3,30.06,North,351,0.0,0.0,71,0.00,,---,0.00,VWS V14.01,2013-08-06 06:47:00,
2013-08-06 02:52:00,55.4,46.2,30.06,North,351,0.0,0.0,71,0.00,,---,0.00,VWS V14.01,2013-08-06 06:52:00,
2013-08-06 02:57:00,55.4,46.2,30.06,North,351,0.0,0.0,71,0.00,,---,0.00,VWS V14.01,2013-08-06 06:57:00,
2013-08-06 03:02:00,55.4,46.5,30.06,North,351,0.0,0.0,72,0.00,,---,0.00,VWS V14.01,2013-08-06 07:02:00,
2013-08-06 03:07:00,55.2,46.4,30.06,North,351,0.0,0.0,72,0.00,,---,0.00,VWS V14.01,2013-08-06 07:07:00,
2013-08-06 03:12:00,55.2,46.4,30.06,North,351,0.0,0.0,72,0.00,,---,0.00,VWS V14.01,2013-08-06 07:12:00,
2013-08-06 03:17:00,55.2,46.4,30.06,North,351,0.0,0.0,72,0.00,,---,0.00,VWS V14.01,2013-08-06 07:17:00,
2013-08-06 03:22:00,55.0,46.2,30.06,North,351,0.0,0.0,72,0.00,,---,0.00,VWS V14.01,2013-08-06 07:22:00,
2013-08-06 03:27:00,54.9,46.0,30.06,North,351,0.0,0.0,72,0.00,,---,0.00,VWS V14.01,2013-08-06 07:27:00,
2013-08-06 03:32:00,54.7,45.8,30.06,North,351,0.0,0.0,72,0.00,,---,0.00,VWS V14.01,2013-08-06 07:32:00,
2013-08-06 03:37:00,54.7,45.8,30.06,North,351,0.0,0.0,72,0.00,,---,0.00,VWS V14.01,2013-08-06 07:37:00,
2013-08-06 03:42:00,54.7,45.8,30.06,North,351,0.0,0.0,72,0.00,,---,0.00,VWS V14.01,2013-08-06 07:42:00,
2013-08-06 03:47:00,54.5,45.7,30.06,North,351,0.0,0.0,72,0.00,,---,0.00,VWS V14.01,2013-08-06 07:47:00,
2013-08-06 03:52:00,54.3,45.5,30.09,North,351,0.0,0.0,72,0.00,,---,0.00,VWS V14.01,2013-08-06 07:52:00,
2013-08-06 03:57:00,54.3,45.5,30.09,North,351,0.0,0.0,72,0.00,,---,0.00,VWS V14.01,2013-08-06 07:57:00,
2013-08-06 04:02:00,54.1,45.3,30.09,North,351,0.0,0.0,72,0.00,,---,0.00,VWS V14.01,2013-08-06 08:02:00,
2013-08-06 04:07:00,54.1,45.7,30.09,North,351,0.0,0.0,73,0.00,,---,0.00,VWS V14.01,2013-08-06 08:07:00,
2013-08-06 04:12:00,54.1,45.7,30.09,North,351,0.0,0.0,73,0.00,,---,0.00,VWS V14.01,2013-08-06 08:12:00,
2013-08-06 04:17:00,54.0,45.5,30.09,North,351,0.0,0.0,73,0.00,,---,0.00,VWS V14.01,2013-08-06 08:17:00,
2013-08-06 04:22:00,54.0,45.5,30.09,North,351,0.0,0.0,73,0.00,,---,0.00,VWS V14.01,2013-08-06 08:22:00,
2013-08-06 04:28:00,54.0,45.5,30.09,North,351,0.0,0.0,73,0.00,,---,0.00,VWS V14.01,2013-08-06 08:28:00,
2013-08-06 04:33:00,53.8,45.3,30.09,North,351,0.0,0.0,73,0.00,,---,0.00,VWS V14.01,2013-08-06 08:33:00,
2013-08-06 04:38:00,53.8,45.3,30.09,North,351,0.0,0.0,73,0.00,,---,0.00,VWS V14.01,2013-08-06 08:38:00,
2013-08-06 04:43:00,53.6,45.2,30.09,North,351,0.0,0.0,73,0.00,,---,0.00,VWS V14.01,2013-08-06 08:43:00,
2013-08-06 04:48:00,53.4,45.0,30.09,North,351,0.0,0.0,73,0.00,,---,0.00,VWS V14.01,2013-08-06 08:48:00,
2013-08-06 04:53:00,53.4,45.0,30.09,North,351,0.0,0.0,73,0.00,,---,0.00,VWS V14.01,2013-08-06 08:53:00,
2013-08-06 04:58:00,53.4,45.0,30.09,North,351,0.0,0.0,73,0.00,,---,0.00,VWS V14.01,2013-08-06 08:58:00,
2013-08-06 05:03:00,53.2,44.8,30.09,North,351,0.0,0.0,73,0.00,,---,0.00,VWS V14.01,2013-08-06 09:03:00,
2013-08-06 05:08:00,53.2,44.8,30.09,North,351,0.0,0.0,73,0.00,,---,0.00,VWS V14.01,2013-08-06 09:08:00,
2013-08-06 05:13:00,53.2,44.8,30.09,North,351,0.0,0.0,73,0.00,,---,0.00,VWS V14.01,2013-08-06 09:13:00,
2013-08-06 05:18:00,53.1,44.7,30.09,North,351,0.0,0.0,73,0.00,,---,0.00,VWS V14.01,2013-08-06 09:18:00,
2013-08-06 05:23:00,53.1,44.7,30.09,North,351,0.0,0.0,73,0.00,,---,0.00,VWS V14.01,2013-08-06 09:23:00,
2013-08-06 05:28:00,52.7,44.3,30.09,North,351,0.0,0.0,73,0.00,,---,0.00,VWS V14.01,2013-08-06 09:28:00,
2013-08-06 05:33:00,52.7,44.3,30.09,North,351,0.0,0.0,73,0.00,,---,0.00,VWS V14.01,2013-08-06 09:33:00,
2013-08-06 05:38:00,52.7,44.7,30.09,North,351,0.0,0.0,74,0.00,,---,0.00,VWS V14.01,2013-08-06 09:38:00,
2013-08-06 05:43:00,52.7,44.7,30.09,North,351,0.0,0.0,74,0.00,,---,0.00,VWS V14.01,2013-08-06 09:43:00,
2013-08-06 05:48:00,52.5,44.5,30.09,North,351,0.0,0.0,74,0.00,,---,0.00,VWS V14.01,2013-08-06 09:48:00,
2013-08-06 05:53:00,52.5,44.5,30.09,North,351,0.0,0.0,74,0.00,,---,0.00,VWS V14.01,2013-08-06 09:53:00,
2013-08-06 05:58:00,52.5,44.5,30.09,North,351,0.0,0.0,74,0.00,,---,0.00,VWS V14.01,2013-08-06 09:58:00,
2013-08-06 06:03:00,52.5,44.5,30.09,North,351,0.0,0.0,74,0.00,,---,0.00,VWS V14.01,2013-08-06 10:03:00,
2013-08-06 06:08:00,52.5,44.5,30.09,North,351,0.0,0.0,74,0.00,,---,0.00,VWS V14.01,2013-08-06 10:08:00,
2013-08-06 06:13:00,52.5,44.5,30.09,North,351,0.0,0.0,74,0.00,,---,0.00,VWS V14.01,2013-08-06 10:13:00,
2013-08-06 06:18:00,52.5,44.5,30.09,North,351,0.0,0.0,74,0.00,,---,0.00,VWS V14.01,2013-08-06 10:18:00,
2013-08-06 06:23:00,52.5,44.5,30.09,North,351,0.0,0.0,74,0.00,,---,0.00,VWS V14.01,2013-08-06 10:23:00,
2013-08-06 06:28:00,52.7,45.0,30.09,North,351,0.0,0.0,75,0.00,,---,0.00,VWS V14.01,2013-08-06 10:28:00,
2013-08-06 06:33:00,52.7,45.0,30.09,North,351,0.0,0.0,75,0.00,,---,0.00,VWS V14.01,2013-08-06 10:33:00,
2013-08-06 06:38:00,52.7,45.0,30.12,North,351,0.0,0.0,75,0.00,,---,0.00,VWS V14.01,2013-08-06 10:38:00,
2013-08-06 06:43:00,52.9,45.2,30.12,North,351,0.0,0.0,75,0.00,,---,0.00,VWS V14.01,2013-08-06 10:43:00,
2013-08-06 06:48:00,52.9,45.2,30.12,North,351,0.0,0.0,75,0.00,,---,0.00,VWS V14.01,2013-08-06 10:48:00,
2013-08-06 06:53:00,53.1,45.4,30.12,North,351,0.0,0.0,75,0.00,,---,0.00,VWS V14.01,2013-08-06 10:53:00,
2013-08-06 06:58:00,53.1,45.4,30.12,North,351,0.0,0.0,75,0.00,,---,0.00,VWS V14.01,2013-08-06 10:58:00,
2013-08-06 07:03:00,53.1,45.4,30.12,North,351,0.0,0.0,75,0.00,,---,0.00,VWS V14.01,2013-08-06 11:03:00,
2013-08-06 07:08:00,53.2,45.5,30.12,North,351,0.0,0.0,75,0.00,,---,0.00,VWS V14.01,2013-08-06 11:08:00,
2013-08-06 07:13:00,53.2,45.9,30.12,North,351,0.0,0.0,76,0.00,,---,0.00,VWS V14.01,2013-08-06 11:13:00,
2013-08-06 07:18:00,53.4,46.1,30.12,North,351,0.0,0.0,76,0.00,,---,0.00,VWS V14.01,2013-08-06 11:18:00,
2013-08-06 07:23:00,53.4,46.1,30.12,North,351,0.0,0.0,76,0.00,,---,0.00,VWS V14.01,2013-08-06 11:23:00,
2013-08-06 07:28:00,53.6,46.2,30.12,North,351,0.0,0.0,76,0.00,,---,0.00,VWS V14.01,2013-08-06 11:28:00,
2013-08-06 07:33:00,53.8,46.8,30.12,North,351,0.0,0.0,77,0.00,,---,0.00,VWS V14.01,2013-08-06 11:33:00,
2013-08-06 07:38:00,54.1,47.1,30.12,North,351,0.0,0.0,77,0.00,,---,0.00,VWS V14.01,2013-08-06 11:38:00,
2013-08-06 07:43:00,54.3,47.3,30.12,North,351,0.0,0.0,77,0.00,,---,0.00,VWS V14.01,2013-08-06 11:43:00,
2013-08-06 07:48:00,54.5,47.5,30.12,North,351,0.0,0.0,77,0.00,,---,0.00,VWS V14.01,2013-08-06 11:48:00,
2013-08-06 07:54:00,54.7,47.6,30.12,North,351,0.0,0.0,77,0.00,,---,0.00,VWS V14.01,2013-08-06 11:54:00,
2013-08-06 07:59:00,55.0,48.0,30.12,North,351,0.0,0.0,77,0.00,,---,0.00,VWS V14.01,2013-08-06 11:59:00,
2013-08-06 08:04:00,55.2,48.2,30.12,North,351,0.0,0.0,77,0.00,,---,0.00,VWS V14.01,2013-08-06 12:04:00,
2013-08-06 08:09:00,55.4,48.7,30.12,North,351,0.0,0.0,78,0.00,,---,0.00,VWS V14.01,2013-08-06 12:09:00,
2013-08-06 08:14:00,55.8,49.0,30.12,North,351,0.0,0.0,78,0.00,,---,0.00,VWS V14.01,2013-08-06 12:14:00,
2013-08-06 08:19:00,56.1,49.4,30.12,North,351,0.0,0.0,78,0.00,,---,0.00,VWS V14.01,2013-08-06 12:19:00,
2013-08-06 08:24:00,56.3,49.2,30.12,North,351,0.0,0.0,77,0.00,,---,0.00,VWS V14.01,2013-08-06 12:24:00,
2013-08-06 08:29:00,56.7,49.9,30.12,North,351,0.0,0.0,78,0.00,,---,0.00,VWS V14.01,2013-08-06 12:29:00,
2013-08-06 08:34:00,56.8,49.7,30.12,North,351,0.0,0.0,77,0.00,,---,0.00,VWS V14.01,2013-08-06 12:34:00,
2013-08-06 08:39:00,57.2,50.4,30.12,North,351,0.0,0.0,78,0.00,,---,0.00,VWS V14.01,2013-08-06 12:39:00,
2013-08-06 08:44:00,57.6,50.8,30.12,North,351,0.0,0.0,78,0.00,,---,0.00,VWS V14.01,2013-08-06 12:44:00,
2013-08-06 08:49:00,57.9,51.1,30.12,North,351,0.0,3.1,78,0.00,,---,0.00,VWS V14.01,2013-08-06 12:49:00,
2013-08-06 08:54:00,58.3,51.1,30.12,North,351,0.0,0.0,77,0.00,,---,0.00,VWS V14.01,2013-08-06 12:54:00,
2013-08-06 08:59:00,58.6,51.5,30.12,North,351,0.0,2.7,77,0.00,,---,0.00,VWS V14.01,2013-08-06 12:59:00,
2013-08-06 09:04:00,59.2,52.0,30.12,North,351,0.0,3.1,77,0.00,,---,0.00,VWS V14.01,2013-08-06 13:04:00,
2013-08-06 09:09:00,59.5,52.3,30.12,North,351,0.0,0.0,77,0.00,,---,0.00,VWS V14.01,2013-08-06 13:09:00,
2013-08-06 09:14:00,59.9,52.3,30.12,North,351,0.0,0.0,76,0.00,,---,0.00,VWS V14.01,2013-08-06 13:14:00,
2013-08-06 09:19:00,60.3,52.7,30.12,North,351,0.0,0.0,76,0.00,,---,0.00,VWS V14.01,2013-08-06 13:19:00,
2013-08-06 09:24:00,60.8,53.2,30.12,North,351,0.0,0.0,76,0.00,,---,0.00,VWS V14.01,2013-08-06 13:24:00,
2013-08-06 09:29:00,61.0,53.0,30.12,North,351,0.0,0.0,75,0.00,,---,0.00,VWS V14.01,2013-08-06 13:29:00,
2013-08-06 09:34:00,61.5,53.2,30.12,North,351,0.0,0.0,74,0.00,,---,0.00,VWS V14.01,2013-08-06 13:34:00,
2013-08-06 09:39:00,61.9,53.1,30.12,North,351,0.0,2.7,73,0.00,,---,0.00,VWS V14.01,2013-08-06 13:39:00,
2013-08-06 09:44:00,62.2,53.1,30.12,North,351,0.0,0.0,72,0.00,,---,0.00,VWS V14.01,2013-08-06 13:44:00,
2013-08-06 09:49:00,62.6,53.1,30.12,North,351,0.0,0.0,71,0.00,,---,0.00,VWS V14.01,2013-08-06 13:49:00,
2013-08-06 09:54:00,63.1,52.8,30.12,North,351,0.0,2.7,69,0.00,,---,0.00,VWS V14.01,2013-08-06 13:54:00,
2013-08-06 09:59:00,63.5,52.4,30.12,North,351,0.0,0.0,67,0.00,,---,0.00,VWS V14.01,2013-08-06 13:59:00,
2013-08-06 10:04:00,63.9,51.0,30.12,North,351,0.0,0.0,63,0.00,,---,0.00,VWS V14.01,2013-08-06 14:04:00,
2013-08-06 10:09:00,64.2,50.1,30.12,North,351,0.0,3.1,60,0.00,,---,0.00,VWS V14.01,2013-08-06 14:09:00,
2013-08-06 10:14:00,64.4,48.8,30.12,North,351,0.0,2.7,57,0.00,,---,0.00,VWS V14.01,2013-08-06 14:14:00,
2013-08-06 10:19:00,65.1,48.1,30.12,North,351,0.0,2.7,54,0.00,,---,0.00,VWS V14.01,2013-08-06 14:19:00,
2013-08-06 10:24:00,65.5,47.4,30.12,North,351,0.0,2.7,52,0.00,,---,0.00,VWS V14.01,2013-08-06 14:24:00,
2013-08-06 10:29:00,65.8,45.6,30.12,NW,316,0.0,2.7,48,0.00,,---,0.00,VWS V14.01,2013-08-06 14:29:00,
2013-08-06 10:34:00,66.2,45.4,30.12,NW,316,0.0,0.0,47,0.00,,---,0.00,VWS V14.01,2013-08-06 14:34:00,
2013-08-06 10:39:00,66.6,44.6,30.12,NW,317,0.0,0.0,45,0.00,,---,0.00,VWS V14.01,2013-08-06 14:39:00,
2013-08-06 10:44:00,67.1,43.9,30.12,NW,316,0.0,0.0,43,0.00,,---,0.00,VWS V14.01,2013-08-06 14:44:00,
2013-08-06 10:49:00,67.6,43.8,30.12,NW,316,0.0,0.0,42,0.00,,---,0.00,VWS V14.01,2013-08-06 14:49:00,
2013-08-06 10:54:00,68.0,43.5,30.12,NW,316,0.0,0.0,41,0.00,,---,0.00,VWS V14.01,2013-08-06 14:54:00,
2013-08-06 10:59:00,68.9,43.0,30.12,SSW,201,0.0,0.0,39,0.00,,---,0.00,VWS V14.01,2013-08-06 14:59:00,
2013-08-06 11:04:00,69.6,40.8,30.12,SW,227,0.0,4.9,35,0.00,,---,0.00,VWS V14.01,2013-08-06 15:04:00,
2013-08-06 11:09:00,70.5,40.8,30.12,SW,227,0.0,0.0,34,0.00,,---,0.00,VWS V14.01,2013-08-06 15:09:00,
2013-08-06 11:14:00,71.2,40.7,30.12,SW,234,0.0,4.0,33,0.00,,---,0.00,VWS V14.01,2013-08-06 15:14:00,
2013-08-06 11:19:00,71.8,41.2,30.12,WNW,284,2.7,5.4,33,0.00,,---,0.00,VWS V14.01,2013-08-06 15:19:00,
2013-08-06 11:24:00,72.1,37.3,30.12,SSE,163,0.0,6.7,28,0.00,,---,0.00,VWS V14.01,2013-08-06 15:24:00,
2013-08-06 11:29:00,72.9,37.0,30.12,SSE,165,3.6,3.6,27,0.00,,---,0.00,VWS V14.01,2013-08-06 15:29:00,
2013-08-06 11:34:00,73.9,34.9,30.12,SE,142,4.5,5.8,24,0.00,,---,0.00,VWS V14.01,2013-08-06 15:34:00,
2013-08-06 11:39:00,74.5,36.4,30.12,SSE,163,0.0,4.9,25,0.00,,---,0.00,VWS V14.01,2013-08-06 15:39:00,
2013-08-06 11:44:00,75.4,35.0,30.12,SSW,213,3.1,4.9,23,0.00,,---,0.00,VWS V14.01,2013-08-06 15:44:00,
2013-08-06 11:49:00,75.7,34.2,30.12,SSW,208,2.7,6.9,22,0.00,,---,0.00,VWS V14.01,2013-08-06 15:49:00,
2013-08-06 11:54:00,76.6,33.8,30.12,SW,230,3.1,4.9,21,0.00,,---,0.00,VWS V14.01,2013-08-06 15:54:00,
2013-08-06 11:59:00,77.5,34.6,30.12,WSW,239,0.0,0.0,21,0.00,,---,0.00,VWS V14.01,2013-08-06 15:59:00,
2013-08-06 12:04:00,78.1,33.8,30.12,South,177,0.0,4.0,20,0.00,,---,0.00,VWS V14.01,2013-08-06 16:04:00,
2013-08-06 12:09:00,78.4,34.1,30.12,SE,143,4.5,4.5,20,0.00,,---,0.00,VWS V14.01,2013-08-06 16:09:00,
2013-08-06 12:15:00,77.7,30.9,30.12,SSE,149,0.0,0.0,18,0.00,,---,0.00,VWS V14.01,2013-08-06 16:15:00,
2013-08-06 12:20:00,78.4,34.1,30.12,SSE,161,4.0,4.0,20,0.00,,---,0.00,VWS V14.01,2013-08-06 16:20:00,
2013-08-06 12:25:00,78.8,30.4,30.12,SSE,156,3.6,4.9,17,0.00,,---,0.00,VWS V14.01,2013-08-06 16:25:00,
2013-08-06 12:30:00,78.6,27.1,30.12,SSW,207,0.0,0.0,15,0.00,,---,0.00,VWS V14.01,2013-08-06 16:30:00,
2013-08-06 12:35:00,79.3,22.4,30.12,SSW,209,0.0,4.5,12,0.00,,---,0.00,VWS V14.01,2013-08-06 16:35:00,
2013-08-06 12:40:00,80.2,23.1,30.12,SSW,194,0.0,0.0,12,0.00,,---,0.00,VWS V14.01,2013-08-06 16:40:00,
2013-08-06 12:45:00,80.6,23.4,30.12,South,191,0.0,0.0,12,0.00,,---,0.00,VWS V14.01,2013-08-06 16:45:00,
2013-08-06 12:50:00,81.1,23.8,30.12,SSE,164,0.0,0.0,12,0.00,,---,0.00,VWS V14.01,2013-08-06 16:50:00,
2013-08-06 12:55:00,81.1,23.8,30.12,South,184,0.0,0.0,12,0.00,,---,0.00,VWS V14.01,2013-08-06 16:55:00,
2013-08-06 13:00:00,81.7,22.1,30.12,SSW,201,0.0,0.0,11,0.00,,---,0.00,VWS V14.01,2013-08-06 17:00:00,
2013-08-06 13:05:00,81.5,24.0,30.12,SE,130,0.0,0.0,12,0.00,,---,0.00,VWS V14.01,2013-08-06 17:05:00,
2013-08-06 13:10:00,81.3,19.6,30.12,SW,219,0.0,0.0,10,0.00,,---,0.00,VWS V14.01,2013-08-06 17:10:00,
2013-08-06 13:15:00,82.0,22.4,30.12,WNW,293,0.0,6.3,11,0.00,,---,0.00,VWS V14.01,2013-08-06 17:15:00,
2013-08-06 13:20:00,82.8,23.0,30.12,WSW,251,2.7,2.7,11,0.00,,---,0.00,VWS V14.01,2013-08-06 17:20:00,
2013-08-06 13:25:00,82.0,20.1,30.12,SW,214,0.0,0.0,10,0.00,,---,0.00,VWS V14.01,2013-08-06 17:25:00,
2013-08-06 13:27:00,81.5,19.7,30.12,SSE,151,4.0,4.0,10,0.00,,---,0.00,VWS V14.01,2013-08-06 17:27:00,
2013-08-06 13:32:00,79.9,18.5,30.12,South,174,0.0,0.0,10,0.00,,---,0.00,VWS V14.01,2013-08-06 17:32:00,
2013-08-06 13:37:00,80.2,23.1,30.12,South,189,3.6,5.4,12,0.00,,---,0.00,VWS V14.01,2013-08-06 17:37:00,
2013-08-06 13:42:00,81.1,23.8,30.12,South,172,0.0,4.0,12,0.00,,---,0.00,VWS V14.01,2013-08-06 17:42:00,
2013-08-06 13:47:00,81.7,22.1,30.12,South,181,0.0,6.3,11,0.00,,---,0.00,VWS V14.01,2013-08-06 17:47:00,
2013-08-06 13:52:00,82.8,23.0,30.12,SSW,206,4.9,6.3,11,0.00,,---,0.00,VWS V14.01,2013-08-06 17:52:00,
2013-08-06 13:57:00,82.9,23.1,30.12,SW,222,0.0,3.6,11,0.00,,---,0.00,VWS V14.01,2013-08-06 17:57:00,
2013-08-06 14:02:00,82.8,23.0,30.12,SE,130,0.0,4.0,11,0.00,,---,0.00,VWS V14.01,2013-08-06 18:02:00,
2013-08-06 14:07:00,83.3,23.4,30.12,SSW,198,0.0,4.9,11,0.00,,---,0.00,VWS V14.01,2013-08-06 18:07:00,
2013-08-06 14:12:00,82.9,23.1,30.12,SSE,151,0.0,2.7,11,0.00,,---,0.00,VWS V14.01,2013-08-06 18:12:00,
2013-08-06 14:17:00,83.5,21.2,30.12,SE,145,0.0,6.3,10,0.00,,---,0.00,VWS V14.01,2013-08-06 18:17:00,
2013-08-06 14:22:00,84.0,23.9,30.12,South,186,0.0,4.0,11,0.00,,---,0.00,VWS V14.01,2013-08-06 18:22:00,
2013-08-06 14:27:00,83.1,21.0,30.12,NNW,332,0.0,4.9,10,0.00,,---,0.00,VWS V14.01,2013-08-06 18:27:00,
2013-08-06 14:32:00,83.3,21.1,30.12,SE,127,0.0,5.4,10,0.00,,---,0.00,VWS V14.01,2013-08-06 18:32:00,
2013-08-06 14:37:00,83.8,23.8,30.12,SSW,193,3.6,3.6,11,0.00,,---,0.00,VWS V14.01,2013-08-06 18:37:00,
2013-08-06 14:42:00,84.0,21.6,30.12,West,275,0.0,5.4,10,0.00,,---,0.00,VWS V14.01,2013-08-06 18:42:00,
2013-08-06 14:47:00,84.2,21.8,30.12,SW,233,0.0,2.7,10,0.00,,---,0.00,VWS V14.01,2013-08-06 18:47:00,
2013-08-06 14:52:00,84.4,21.9,30.09,South,178,0.0,3.1,10,0.00,,---,0.00,VWS V14.01,2013-08-06 18:52:00,
2013-08-06 14:57:00,83.1,21.0,30.09,SSW,203,3.1,6.7,10,0.00,,---,0.00,VWS V14.01,2013-08-06 18:57:00,
2013-08-06 15:02:00,81.0,19.3,30.09,SSW,199,0.0,5.4,10,0.00,,---,0.00,VWS V14.01,2013-08-06 19:02:00,
2013-08-06 15:07:00,79.5,18.2,30.09,SSW,211,0.0,6.7,10,0.00,,---,0.00,VWS V14.01,2013-08-06 19:07:00,
2013-08-06 15:12:00,78.4,21.7,30.09,South,171,0.0,6.3,12,0.00,,---,0.00,VWS V14.01,2013-08-06 19:12:00,
2013-08-06 15:17:00,77.7,23.0,30.09,SSE,148,4.5,4.9,13,0.00,,---,0.00,VWS V14.01,2013-08-06 19:17:00,
2013-08-06 15:22:00,76.8,25.7,30.12,South,172,2.7,6.7,15,0.00,,---,0.00,VWS V14.01,2013-08-06 19:22:00,
2013-08-06 15:27:00,76.5,32.5,30.12,SSE,165,0.0,0.0,20,0.00,,---,0.00,VWS V14.01,2013-08-06 19:27:00,
2013-08-06 15:32:00,75.9,33.2,30.12,SSE,165,0.0,0.0,21,0.00,,---,0.00,VWS V14.01,2013-08-06 19:32:00,
2013-08-06 15:37:00,75.4,33.9,30.12,SSE,161,0.0,6.3,22,0.00,,---,0.00,VWS V14.01,2013-08-06 19:37:00,
2013-08-06 15:42:00,75.2,32.6,30.12,SE,141,0.0,5.8,21,0.00,,---,0.00,VWS V14.01,2013-08-06 19:42:00,
2013-08-06 15:47:00,74.8,32.3,30.12,South,173,0.0,5.8,21,0.00,,---,0.00,VWS V14.01,2013-08-06 19:47:00,
2013-08-06 15:53:00,74.7,33.3,30.12,South,173,0.0,0.0,22,0.00,,---,0.00,VWS V14.01,2013-08-06 19:53:00,
2013-08-06 15:58:00,74.5,33.2,30.12,SSE,151,0.0,6.3,22,0.00,,---,0.00,VWS V14.01,2013-08-06 19:58:00,
2013-08-06 16:03:00,74.3,34.1,30.12,SSE,149,4.0,4.9,23,0.00,,---,0.00,VWS V14.01,2013-08-06 20:03:00,
2013-08-06 16:08:00,75.2,33.8,30.09,SSE,152,0.0,0.0,22,0.00,,---,0.00,VWS V14.01,2013-08-06 20:08:00,
2013-08-06 16:13:00,77.2,34.3,30.09,SSE,155,0.0,4.0,21,0.00,,---,0.00,VWS V14.01,2013-08-06 20:13:00,
2013-08-06 16:18:00,79.2,34.7,30.09,South,171,4.9,7.8,20,0.00,,---,0.00,VWS V14.01,2013-08-06 20:18:00,
2013-08-06 16:23:00,78.6,30.2,30.09,South,180,2.7,4.9,17,0.00,,---,0.00,VWS V14.01,2013-08-06 20:23:00,
2013-08-06 16:28:00,79.3,30.8,30.09,WNW,290,7.8,7.8,17,0.00,,---,0.00,VWS V14.01,2013-08-06 20:28:00,
2013-08-06 16:32:00,80.4,26.9,30.09,SSE,148,7.4,7.4,14,0.00,,---,0.00,VWS V14.01,2013-08-06 20:32:00,
2013-08-06 16:37:00,81.3,23.9,30.12,ESE,116,3.6,9.6,12,0.00,,---,0.00,VWS V14.01,2013-08-06 20:37:00,
2013-08-06 16:42:00,81.7,27.9,30.12,SSW,204,4.0,9.2,14,0.00,,---,0.00,VWS V14.01,2013-08-06 20:42:00,
2013-08-06 16:47:00,82.4,22.7,30.12,SE,132,2.7,6.7,11,0.00,,---,0.00,VWS V14.01,2013-08-06 20:47:00,
2013-08-06 16:52:00,82.2,22.5,30.12,SSW,213,4.9,8.3,11,0.00,,---,0.00,VWS V14.01,2013-08-06 20:52:00,
2013-08-06 16:57:00,82.0,28.2,30.12,SSE,157,0.0,6.3,14,0.00,,---,0.00,VWS V14.01,2013-08-06 20:57:00,
2013-08-06 17:02:00,81.9,22.2,30.12,SSE,165,0.0,6.3,11,0.00,,---,0.00,VWS V14.01,2013-08-06 21:02:00,
2013-08-06 17:07:00,82.0,22.4,30.12,SSW,207,0.0,6.7,11,0.00,,---,0.00,VWS V14.01,2013-08-06 21:07:00,
2013-08-06 17:12:00,81.9,22.2,30.12,South,191,4.9,4.9,11,0.00,,---,0.00,VWS V14.01,2013-08-06 21:12:00,
2013-08-06 17:17:00,80.4,23.2,30.12,SSE,158,4.0,9.2,12,0.00,,---,0.00,VWS V14.01,2013-08-06 21:17:00,
2013-08-06 17:23:00,80.1,26.6,30.12,SSE,160,0.0,6.3,14,0.00,,---,0.00,VWS V14.01,2013-08-06 21:23:00,
2013-08-06 17:28:00,80.4,26.9,30.12,SSW,198,2.7,4.5,14,0.00,,---,0.00,VWS V14.01,2013-08-06 21:28:00,
2013-08-06 17:33:00,80.6,27.0,30.12,SSW,201,0.0,6.9,14,0.00,,---,0.00,VWS V14.01,2013-08-06 21:33:00,
2013-08-06 17:38:00,80.6,27.0,30.12,SW,227,0.0,3.6,14,0.00,,---,0.00,VWS V14.01,2013-08-06 21:38:00,
2013-08-06 17:43:00,81.1,27.5,30.12,SW,222,3.1,4.0,14,0.00,,---,0.00,VWS V14.01,2013-08-06 21:43:00,
2013-08-06 17:48:00,81.3,27.6,30.12,WNW,299,0.0,4.9,14,0.00,,---,0.00,VWS V14.01,2013-08-06 21:48:00,
2013-08-06 17:53:00,80.6,27.0,30.12,SSE,159,0.0,6.7,14,0.00,,---,0.00,VWS V14.01,2013-08-06 21:53:00,
2013-08-06 17:58:00,80.6,27.0,30.12,SSE,154,0.0,6.7,14,0.00,,---,0.00,VWS V14.01,2013-08-06 21:58:00,
2013-08-06 18:03:00,80.4,31.7,30.12,SSE,152,3.1,4.5,17,0.00,,---,0.00,VWS V14.01,2013-08-06 22:03:00,
2013-08-06 18:08:00,80.1,31.4,30.12,SW,214,0.0,5.8,17,0.00,,---,0.00,VWS V14.01,2013-08-06 22:08:00,
2013-08-06 18:13:00,79.5,30.9,30.12,SE,145,0.0,6.3,17,0.00,,---,0.00,VWS V14.01,2013-08-06 22:13:00,
2013-08-06 18:18:00,78.8,30.4,30.12,SSE,157,2.7,3.6,17,0.00,,---,0.00,VWS V14.01,2013-08-06 22:18:00,
2013-08-06 18:23:00,78.3,33.9,30.12,SSW,202,0.0,4.5,20,0.00,,---,0.00,VWS V14.01,2013-08-06 22:23:00,
2013-08-06 18:28:00,77.7,33.5,30.12,South,185,0.0,6.3,20,0.00,,---,0.00,VWS V14.01,2013-08-06 22:28:00,
2013-08-06 18:33:00,77.4,34.4,30.12,South,188,0.0,5.8,21,0.00,,---,0.00,VWS V14.01,2013-08-06 22:33:00,
2013-08-06 18:38:00,76.8,34.0,30.12,SSE,166,0.0,5.8,21,0.00,,---,0.00,VWS V14.01,2013-08-06 22:38:00,
2013-08-06 18:43:00,76.3,33.5,30.12,SSE,150,0.0,4.5,21,0.00,,---,0.00,VWS V14.01,2013-08-06 22:43:00,
2013-08-06 18:48:00,75.9,34.4,30.12,SSE,151,3.6,6.3,22,0.00,,---,0.00,VWS V14.01,2013-08-06 22:48:00,
2013-08-06 18:53:00,75.6,34.1,30.12,SE,130,0.0,4.9,22,0.00,,---,0.00,VWS V14.01,2013-08-06 22:53:00,
2013-08-06 18:58:00,75.0,34.7,30.12,ENE,64,0.0,5.4,23,0.00,,---,0.00,VWS V14.01,2013-08-06 22:58:00,
2013-08-06 19:03:00,74.7,35.5,30.12,East,90,0.0,3.6,24,0.00,,---,0.00,VWS V14.01,2013-08-06 23:03:00,
2013-08-06 19:08:00,74.3,35.2,30.12,SSE,157,0.0,5.4,24,0.00,,---,0.00,VWS V14.01,2013-08-06 23:08:00,
2013-08-06 19:13:00,73.9,35.9,30.12,South,174,3.6,4.5,25,0.00,,---,0.00,VWS V14.01,2013-08-06 23:13:00,
2013-08-06 19:18:00,73.6,36.6,30.12,South,174,0.0,5.4,26,0.00,,---,0.00,VWS V14.01,2013-08-06 23:18:00,
2013-08-06 19:23:00,73.2,37.3,30.12,South,171,0.0,4.0,27,0.00,,---,0.00,VWS V14.01,2013-08-06 23:23:00,
2013-08-06 19:28:00,72.9,37.0,30.12,South,173,0.0,4.9,27,0.00,,---,0.00,VWS V14.01,2013-08-06 23:28:00,
2013-08-06 19:33:00,72.5,38.5,30.12,SSE,155,0.0,3.6,29,0.00,,---,0.00,VWS V14.01,2013-08-06 23:33:00,
2013-08-06 19:38:00,72.1,39.0,30.12,SSE,155,0.0,0.0,30,0.00,,---,0.00,VWS V14.01,2013-08-06 23:38:00,
2013-08-06 19:43:00,71.6,39.4,30.12,SSE,155,0.0,0.0,31,0.00,,---,0.00,VWS V14.01,2013-08-06 23:43:00,
2013-08-06 19:48:00,71.2,39.1,30.12,SSE,154,0.0,0.0,31,0.00,,---,0.00,VWS V14.01,2013-08-06 23:48:00,
2013-08-06 19:53:00,71.1,39.7,30.12,SSE,155,0.0,0.0,32,0.00,,---,0.00,VWS V14.01,2013-08-06 23:53:00,
2013-08-06 19:58:00,70.7,39.4,30.12,SSE,155,0.0,0.0,32,0.00,,---,0.00,VWS V14.01,2013-08-06 23:58:00,
2013-08-06 20:03:00,70.5,40.1,30.12,SSE,155,0.0,0.0,33,0.00,,---,0.00,VWS V14.01,2013-08-07 00:03:00,
2013-08-06 20:08:00,70.2,39.7,30.12,SSE,158,0.0,0.0,33,0.00,,---,0.00,VWS V14.01,2013-08-07 00:08:00,
2013-08-06 20:13:00,70.0,40.3,30.12,SSE,158,0.0,0.0,34,0.00,,---,0.00,VWS V14.01,2013-08-07 00:13:00,
2013-08-06 20:18:00,69.6,40.8,30.12,SSE,158,0.0,0.0,35,0.00,,---,0.00,VWS V14.01,2013-08-07 00:18:00,
2013-08-06 20:23:00,69.4,40.6,30.12,SSE,158,0.0,0.0,35,0.00,,---,0.00,VWS V14.01,2013-08-07 00:23:00,
2013-08-06 20:29:00,69.1,41.7,30.12,SSE,154,0.0,0.0,37,0.00,,---,0.00,VWS V14.01,2013-08-07 00:29:00,
2013-08-06 20:34:00,68.9,41.6,30.12,SSE,155,0.0,0.0,37,0.00,,---,0.00,VWS V14.01,2013-08-07 00:34:00,
2013-08-06 20:39:00,68.5,42.0,30.15,SSE,155,0.0,0.0,38,0.00,,---,0.00,VWS V14.01,2013-08-07 00:39:00,
2013-08-06 20:44:00,68.2,43.0,30.15,SSE,154,0.0,0.0,40,0.00,,---,0.00,VWS V14.01,2013-08-07 00:44:00,
2013-08-06 20:49:00,68.0,43.5,30.15,SSE,155,0.0,0.0,41,0.00,,---,0.00,VWS V14.01,2013-08-07 00:49:00,
2013-08-06 20:54:00,67.5,43.6,30.12,SSE,154,0.0,0.0,42,0.00,,---,0.00,VWS V14.01,2013-08-07 00:54:00,
2013-08-06 20:59:00,67.1,43.3,30.12,SSE,154,0.0,0.0,42,0.00,,---,0.00,VWS V14.01,2013-08-07 00:59:00,
2013-08-06 21:04:00,66.9,44.3,30.12,SSE,154,0.0,0.0,44,0.00,,---,0.00,VWS V14.01,2013-08-07 01:04:00,
2013-08-06 21:09:00,66.9,44.9,30.12,SSE,159,2.7,3.1,45,0.00,,---,0.00,VWS V14.01,2013-08-07 01:09:00,
2013-08-06 21:14:00,66.9,44.9,30.12,South,174,0.0,0.0,45,0.00,,---,0.00,VWS V14.01,2013-08-07 01:14:00,
2013-08-06 21:19:00,66.9,44.9,30.12,South,174,0.0,4.0,45,0.00,,---,0.00,VWS V14.01,2013-08-07 01:19:00,
2013-08-06 21:24:00,66.9,44.3,30.12,South,173,3.1,3.6,44,0.00,,---,0.00,VWS V14.01,2013-08-07 01:24:00,
2013-08-06 21:29:00,67.1,43.9,30.12,South,173,0.0,0.0,43,0.00,,---,0.00,VWS V14.01,2013-08-07 01:29:00,
2013-08-06 21:34:00,67.1,43.3,30.12,South,173,2.7,3.1,42,0.00,,---,0.00,VWS V14.01,2013-08-07 01:34:00,
2013-08-06 21:39:00,67.1,42.6,30.15,South,174,0.0,2.7,41,0.00,,---,0.00,VWS V14.01,2013-08-07 01:39:00,
2013-08-06 21:44:00,66.9,41.8,30.15,SSE,157,2.7,3.1,40,0.00,,---,0.00,VWS V14.01,2013-08-07 01:44:00,
2013-08-06 21:49:00,66.9,41.8,30.15,SSE,165,2.7,2.7,40,0.00,,---,0.00,VWS V14.01,2013-08-07 01:49:00,
2013-08-06 21:54:00,66.9,41.8,30.15,SSE,165,0.0,2.7,40,0.00,,---,0.00,VWS V14.01,2013-08-07 01:54:00,
2013-08-06 21:59:00,66.9,41.2,30.15,SSE,164,0.0,3.1,39,0.00,,---,0.00,VWS V14.01,2013-08-07 01:59:00,
2013-08-06 22:04:00,66.7,41.0,30.15,SSE,164,0.0,0.0,39,0.00,,---,0.00,VWS V14.01,2013-08-07 02:04:00,
2013-08-06 22:09:00,66.7,41.0,30.15,South,172,0.0,2.7,39,0.00,,---,0.00,VWS V14.01,2013-08-07 02:09:00,
2013-08-06 22:14:00,66.6,40.9,30.15,South,172,0.0,0.0,39,0.00,,---,0.00,VWS V14.01,2013-08-07 02:14:00,
2013-08-06 22:19:00,66.6,40.9,30.15,South,172,0.0,0.0,39,0.00,,---,0.00,VWS V14.01,2013-08-07 02:19:00,
2013-08-06 22:24:00,66.6,40.9,30.15,South,172,0.0,0.0,39,0.00,,---,0.00,VWS V14.01,2013-08-07 02:24:00,
2013-08-06 22:29:00,66.4,40.7,30.15,South,172,0.0,0.0,39,0.00,,---,0.00,VWS V14.01,2013-08-07 02:29:00,
2013-08-06 22:34:00,66.2,40.5,30.15,South,172,0.0,0.0,39,0.00,,---,0.00,VWS V14.01,2013-08-07 02:34:00,
2013-08-06 22:39:00,66.2,40.5,30.15,South,172,0.0,0.0,39,0.00,,---,0.00,VWS V14.01,2013-08-07 02:39:00,
2013-08-06 22:44:00,66.0,40.4,30.15,South,172,0.0,0.0,39,0.00,,---,0.00,VWS V14.01,2013-08-07 02:44:00,
2013-08-06 22:49:00,65.8,40.2,30.15,South,171,0.0,0.0,39,0.00,,---,0.00,VWS V14.01,2013-08-07 02:49:00,
2013-08-06 22:54:00,65.7,40.7,30.15,South,172,0.0,0.0,40,0.00,,---,0.00,VWS V14.01,2013-08-07 02:54:00,
2013-08-06 22:59:00,65.5,40.5,30.15,South,172,0.0,0.0,40,0.00,,---,0.00,VWS V14.01,2013-08-07 02:59:00,
2013-08-06 23:04:00,65.1,40.9,30.15,South,172,0.0,0.0,41,0.00,,---,0.00,VWS V14.01,2013-08-07 03:04:00,
2013-08-06 23:09:00,64.8,41.8,30.15,South,172,0.0,0.0,43,0.00,,---,0.00,VWS V14.01,2013-08-07 03:09:00,
2013-08-06 23:14:00,64.6,41.6,30.15,South,172,0.0,0.0,43,0.00,,---,0.00,VWS V14.01,2013-08-07 03:14:00,
2013-08-06 23:15:00,64.6,41.6,30.15,South,172,0.0,0.0,43,0.00,,---,0.00,VWS V14.01,2013-08-07 03:15:00,
2013-08-06 23:20:00,64.4,42.0,30.15,South,172,0.0,0.0,44,0.00,,---,0.00,VWS V14.01,2013-08-07 03:20:00,
2013-08-06 23:25:00,64.2,41.9,30.15,South,172,0.0,0.0,44,0.00,,---,0.00,VWS V14.01,2013-08-07 03:25:00,
2013-08-06 23:30:00,64.0,41.7,30.15,South,172,0.0,0.0,44,0.00,,---,0.00,VWS V14.01,2013-08-07 03:30:00,
2013-08-06 23:35:00,63.7,42.5,30.15,South,172,0.0,0.0,46,0.00,,---,0.00,VWS V14.01,2013-08-07 03:35:00,
2013-08-06 23:40:00,63.5,43.5,30.15,South,172,0.0,0.0,48,0.00,,---,0.00,VWS V14.01,2013-08-07 03:40:00,
2013-08-06 23:45:00,63.1,43.7,30.15,South,172,0.0,0.0,49,0.00,,---,0.00,VWS V14.01,2013-08-07 03:45:00,
2013-08-06 23:50:00,63.0,43.5,30.15,South,171,0.0,0.0,49,0.00,,---,0.00,VWS V14.01,2013-08-07 03:50:00,
2013-08-06 23:55:00,63.0,44.0,30.15,South,172,0.0,0.0,50,0.00,,---,0.00,VWS V14.01,2013-08-07 03:55:00,